Location: Caltech
(34.1382°N, 118.1253°W)
Time: 20:02:50
(UTC-07:00)

Cosmos 1626 - Visible Passes

Search period start: 22 October 2014 00:00
Search period end: 01 November 2014 00:00
Orbit: 516 x 519 km, 82.5° (Epoch: 22 October)

Date Brightness Start Highest point End Pass type
(mag) Time Alt. Az. Time Alt. Az. Time Alt. Az.
22 Oct 2.9 19:37:55 10° NNW 19:41:39 53° W 19:45:22 10° S visible
23 Oct 2.5 19:23:23 10° NNW 19:27:11 67° W 19:30:58 10° S visible
24 Oct 2.2 19:08:52 10° N 19:12:42 84° W 19:16:30 10° S visible
25 Oct 2.1 18:54:22 10° N 18:58:12 78° E 19:02:00 10° S visible
26 Oct 2.2 18:39:52 10° N 18:43:40 62° E 18:47:26 10° SSE visible
28 Oct 5.2 06:37:04 10° SE 06:40:03 22° E 06:43:02 10° NE visible
29 Oct 5.4 06:22:54 10° SE 06:25:32 18° E 06:28:11 10° NE visible
29 Oct 5.7 19:33:51 10° WNW 19:35:19 12° W 19:36:46 10° WSW visible
30 Oct 5.5 06:08:49 10° ESE 06:11:01 15° E 06:13:12 10° NE visible
30 Oct 5.5 19:18:39 10° NW 19:20:48 15° W 19:22:56 10° WSW visible
31 Oct 5.7 05:54:57 10° ESE 05:56:29 12° E 05:58:01 10° ENE visible
31 Oct 5.4 19:03:39 10° NW 19:06:15 18° W 19:08:51 10° SW visible
